Location: Amberg
(48.0613°N, 10.6820°E)
Time: 21:16:51
(UTC+00:00)

Sich 1 Rocket - Pass Details

Date: 18 November 2025
Orbit: 611 x 646 km, 82.5° (Epoch: 05 December)

Event Time Altitude Azimuth Distance (km) Brightness Sun altitude
Rises 18:06:04 0° 198° (SSW) 2,939 7.3 -24.8°
Reaches altitude 10° 18:08:20 10° 202° (SSW) 2,037 6.5 -25.2°
Maximum altitude 18:12:48 59° 282° (WNW) 752 4.1 -25.9°
Enters shadow 18:14:55 30° 350° (N) 1,175 5.0 -26.3°
